Showing default

SKYKRAFT-1A, 55054

Orbit data source: Space-Track

SKYKRAFT-1A, 55054 is a payload satellite owned by SkyKraft (AU) in SSO that was launched on Tue, 03 Jan 2023 UTC via an FALCON 9 launch vehicle from the Air Force Eastern Test Range (AFETR). Payload-class satellites include a variety of spacecraft equipped with specific instruments for various scientific and technological missions. These include communications satellites like Starlink; space stations such as the ISS; scientific satellites like the Hubble; Earth observation satellites from companies like Planet Labs, Umbra, and HawkEye 360; GPS; miniature CubeSats for education and research; and military/defense satellites.

Loading next visibility...
Identifier
55054, 2023-001AX
Orbit
SSO
Country
Flag of AUAU / AUS
Related business
Manufacturer
SkyKraft
Mission
Operational Commercial Communications
Bus & Motor
SKYKRAFT, Unknown motor
Mass
~50 kg wet, ~50 kg dry
Launch date (UTC)
2023-01-03 (3 years ago)
Launch vehicle
FALCON 9
Launch site
Air Force Eastern Test Range (AFETR)
Object type
Payload
Rocket body
Debris
Shape & HBR
Box, 0.3 m
Radar Cross Section
0.065 m², Medium (>0.1 m² and < 1m²)

Expand to show TLE details & history
Last TLE update: 1 day ago

TLE from 1 day ago
0 SKYKRAFT-1A
1 55054U 23001AX  25312.62833510  .00008944  00000-0  34639-3 0  9999
2 55054  97.3558   8.4097 0010159 182.9236 177.1945 15.26350200158049
Epoch: 2025-11-08T15:04Z
TLE epoch observation values (Epoch: 2025-11-08T15:04:48.152Z)
Latitude
-0.00004°
Longitude
94.15385°
Altitude
496.802 km
Speed
7.612 km/s
True Right ascension
00h 33m 38s
True Declination
0° 00' 00"
Sunlit
Object was in full shadow at epoch
Visualization orbit readout
Latitude
Unknown
Longitude
Unknown
Altitude
Unknown
Speed
Unknown
Apparent Right ascension
Unknown
Apparent Declination
Unknown
Sunlit
N/A
Visualization observer readout
Local Sidereal Time
18:58:13
Azimuth
Unknown
Elevation
Unknown
Doppler factor
Unknown
Orbital elements
Apogee altitude
490.66 km
Perigee altitude
476.718 km
Semi-major axis
6,861.826 km
Eccentricity
0.00102
Inclination
97.3558°
RAAN
8.4097°
Arg. of periapsis
182.9236°
True anomaly
177.20019°
Mean anomaly
177.1945°
Eccentric anomaly
177.19735°
Mean motion
3.81842 °/min
Orbital period
94.28 mins
BSTAR
0.00034639
Loading maneuver chart data...
Computing Atmospheric mass density...

Documentation

Showing up to 5 results
|